Temperature
18 18 18 17 17 17 17 17 17 17 17 16 16 16 16 16 15 15 15 15 15 15 15 15 15 14 14 14 14 14 14 13 13 14 14 14 14 14 14 13 13 13 13
18 18 18 18 17 17 17 17 17 17 17 17 16 16 16 16 16 16 15 15 15 15 15 15 15 14 14 14 14 14 14 13 13 13 14 14 14 13 13 13 13 13 13
18 18 18 18 18 18 17 17 17 17 17 16 16 16 16 16 16 16 16 15 15 15 15 15 15 14 14 14 14 14 14 13 13 13 13 13 13 13 13 13 13 13 13
19 18 18 18 18 18 17 17 17 17 17 16 16 16 16 16 16 16 16 15 15 15 15 15 15 14 14 14 14 14 14 13 13 13 13 13 13 13 13 13 13 13 13
19 19 18 18 18 18 17 17 17 17 17 16 16 16 16 16 16 16 16 16 15 15 15 15 15 15 14 14 14 14 14 13 13 13 13 13 13 13 13 13 13 13 13
19 19 19 18 18 18 17 17 17 17 16 16 16 16 16 16 16 15 15 15 15 15 15 15 15 14 14 14 14 14 13 13 13 13 13 13 13 13 13 13 12 12 12
19 19 19 19 18 18 17 17 17 17 16 16 16 16 16 16 15 15 15 15 15 15 15 15 15 14 14 14 14 13 13 13 13 13 13 13 13 13 12 12 12 12 12
19 19 19 18 18 18 17 17 17 17 16 16 16 16 16 16 15 15 15 15 14 14 14 14 14 14 14 14 13 13 13 13 13 13 13 13 13 12 12 12 12 12 12
19 18 18 18 18 17 17 16 16 16 16 16 16 16 15 15 15 15 14 14 14 14 14 14 14 14 14 13 13 13 13 13 13 13 13 13 12 12 12 12 12 11 11
18 18 18 17 17 17 17 16 16 16 15 15 15 15 15 15 15 14 14 14 14 14 14 14 13 13 13 13 13 13 13 13 13 12 12 12 12 12 12 12 12 11 11
17 17 17 17 16 16 16 16 15 15 15 15 15 14 14 14 14 14 13 13 13 13 13 13 13 13 13 12 12 12 12 12 12 12 12 12 12 12 12 12 12 11 11
16 16 16 16 16 15 15 15 15 15 14 14 14 14 14 14 13 13 13 13 13 13 13 13 12 12 12 12 12 12 12 11 11 11 11 11 12 12 12 12 12 11 11
15 15 15 15 14 14 14 14 14 14 14 13 13 13 13 13 13 12 12 12 12 12 12 12 12 12 11 11 11 11 11 11 11 11 11 11 11 11 11 11 11 11 11
14 14 14 14 14 13 13 13 13 13 13 13 13 13 12 12 12 12 12 12 12 11 11 11 11 11 11 11 11 11 11 10 10 10 10 10 10 10 10 10 11 11 10
13 13 13 13 13 13 13 13 12 13 13 12 12 12 12 12 12 11 11 11 11 11 11 11 11 11 11 10 10 10 10 10 10 10 10 10 10 10 10 10 10 10 10
13 13 13 13 13 12 12 12 12 12 12 12 12 12 12 11 11 11 11 11 11 10 10 10 10 10 10 9 9 9 9 9 9 9 9 9 9 9 9 9 9 9 9
12 12 12 12 12 12 12 12 12 12 12 12 12 11 11 11 11 11 11 10 10 10 10 10 9 9 9 9 9 9 9 9 9 9 8 8 8 8 9 9 9 9 9
12 12 12 12 12 12 12 12 12 12 11 11 11 11 11 11 11 10 10 10 10 10 10 9 9 9 9 8 8 8 8 8 8 8 8 8 8 8 8 8 8 8 8
12 12 12 12 12 11 11 11 11 11 11 11 11 11 11 11 10 10 10 10 9 9 9 9 9 8 8 8 8 8 8 7 7 7 7 7 7 7 7 7 7 8 8
11 11 11 11 11 11 11 11 11 11 11 11 11 10 10 10 10 10 9 9 9 9 8 8 8 8 8 8 7 7 7 7 7 7 7 7 7 7 7 7 7 7 7
11 11 11 11 11 11 11 11 11 11 10 10 10 10 10 9 9 9 9 8 8 8 8 7 7 7 7 7 7 7 7 7 7 6 6 6 6 6 6 6 6 7 7
10 10 10 10 10 10 10 10 10 10 10 10 9 9 9 9 8 8 8 8 7 7 7 7 7 7 6 6 6 6 6 6 6 6 6 6 6 6 6 6 6 6 6
10 10 10 10 10 10 10 10 10 9 9 9 9 9 8 8 8 8 7 7 7 7 6 6 6 6 6 6 6 6 5 5 5 5 5 5 5 6 6 6 6 6 6
9 9 9 9 9 9 9 9 9 8 8 8 8 8 8 7 7 7 6 6 6 6 6 6 6 6 5 5 5 5 5 5 5 5 5 5 5 5 5 5 6 6 6
9 9 8 8 8 8 8 8 8 7 7 7 7 7 7 6 6 6 6 6 6 6 5 5 5 5 5 5 5 5 5 5 5 5 5 5 5 5 5 5 5 6 6
8 8 8 7 7 7 7 7 6 6 6 6 6 6 6 6 5 5 5 5 5 5 5 5 5 5 5 5 5 5 5 5 5 5 5 5 5 5 5 5 5 6 6
Wind_Speed
11 9 8 8 8 8 8 8 8 8 9 9 9 9 8 7 7 6 5 5 5 4 3 4 4 3 2 2 1 1 2 3 3 4 3 3 3 4 6 9 11 11 13
11 10 9 9 8 8 8 9 9 9 9 10 9 9 9 8 7 8 7 6 6 6 6 5 5 4 4 3 3 3 3 3 4 5 4 3 4 5 5 5 8 10 11
11 11 10 9 9 9 9 9 9 9 9 9 9 10 9 9 9 8 8 7 7 7 7 7 7 6 6 5 5 4 4 4 4 4 5 3 4 4 4 4 4 5 8
12 11 11 11 10 10 9 9 9 9 9 10 10 10 9 9 9 9 9 8 8 7 7 8 8 8 8 7 6 6 5 5 4 4 5 5 5 4 2 4 4 4 4
12 12 12 10 9 9 9 9 9 9 10 9 9 8 8 7 8 9 9 9 8 8 7 7 8 10 11 9 7 7 7 6 5 5 6 4 5 4 4 4 4 5 5
13 13 12 11 10 10 9 9 9 9 8 8 9 9 9 8 10 12 9 8 7 8 8 7 8 9 11 13 13 12 10 8 8 6 6 7 8 7 5 5 4 4 5
13 12 12 12 11 10 10 9 9 9 9 9 9 9 9 9 11 12 12 7 7 7 8 7 6 7 8 7 9 11 12 14 14 9 9 10 9 8 6 6 6 7 7
10 10 10 10 9 8 7 8 8 7 7 7 8 8 8 9 12 12 11 7 6 6 6 6 7 7 6 6 7 7 8 9 11 10 10 12 11 10 9 9 8 7 7
8 8 8 8 8 7 7 7 7 6 7 7 7 7 7 8 10 12 10 5 5 6 6 6 7 7 9 9 6 7 9 9 12 14 16 16 17 17 12 5 6 6 8
5 5 5 6 7 7 8 7 5 5 6 6 6 6 7 7 8 10 10 5 5 5 5 5 8 8 9 7 6 7 9 10 8 9 10 13 13 14 16 11 10 9 8
4 5 4 4 5 6 5 4 4 5 4 4 4 3 4 4 5 7 8 5 5 5 5 5 5 7 8 8 8 8 12 11 8 8 9 9 9 9 9 10 10 11 11
6 5 4 3 2 3 3 3 4 5 4 3 3 2 1 2 3 4 7 8 6 5 5 4 5 8 9 11 9 11 15 12 7 7 8 9 9 10 10 10 10 12 14
6 5 4 4 3 2 4 4 3 3 3 3 3 2 1 1 1 2 4 6 7 5 5 7 8 10 10 9 12 14 11 7 6 7 9 10 10 10 9 8 9 9 10
6 4 4 4 4 3 3 3 3 3 3 3 3 2 2 2 2 1 2 2 4 5 5 6 9 9 8 9 9 8 6 6 7 8 9 9 8 7 8 8 8 8 7
5 4 3 2 2 3 2 2 3 3 4 5 4 4 4 3 4 5 3 2 2 3 2 2 3 4 4 5 5 6 6 6 6 7 8 9 8 8 8 7 7 6 7
5 3 2 2 1 1 1 1 2 1 3 4 5 4 4 5 5 5 5 5 4 3 2 3 4 5 5 6 6 7 6 6 7 7 7 8 8 8 8 7 6 7 9
4 3 2 2 1 1 0 0 1 3 2 2 4 5 6 5 5 5 5 5 4 4 3 4 5 6 6 6 6 7 7 7 7 7 7 8 8 8 8 8 7 7 8
4 3 3 2 1 0 0 1 1 1 1 2 3 6 7 7 7 6 4 1 2 2 4 5 6 6 6 6 6 7 7 7 7 7 8 8 8 8 8 8 8 8 9
4 3 2 2 2 1 1 0 1 1 2 2 2 3 5 6 6 5 3 3 4 5 5 6 6 6 6 6 6 7 7 7 8 7 8 8 8 8 8 8 8 10 10
3 5 4 2 2 2 2 1 1 1 2 2 3 3 2 0 1 2 2 3 4 5 6 6 6 6 6 6 6 6 7 7 7 7 7 8 8 7 8 9 8 8 8
3 4 6 4 3 2 2 2 2 2 2 3 3 3 3 2 3 4 4 4 5 5 6 6 6 6 6 6 6 7 8 7 7 7 7 7 7 7 8 8 8 9 8
3 3 3 3 3 3 3 3 3 3 3 3 3 3 3 2 2 3 4 4 5 5 5 5 5 5 6 6 7 7 8 8 8 7 7 7 7 8 8 8 8 8 9
3 4 4 4 3 4 3 3 3 3 3 3 2 2 2 2 3 4 4 4 4 4 5 5 6 6 6 6 6 7 8 8 7 8 8 8 8 8 9 9 11 11 10
4 4 4 4 3 3 3 3 3 3 3 3 2 2 3 3 4 5 5 5 5 5 5 5 6 9 10 8 7 7 7 8 8 8 10 10 10 10 10 10 10 11 11
4 4 4 3 3 3 3 3 4 4 4 3 3 4 4 4 5 5 5 5 6 6 7 7 7 8 10 11 10 9 10 11 11 10 8 9 11 11 11 11 11 11 11
4 4 3 3 3 3 3 3 3 4 4 4 3 4 5 5 5 5 5 5 6 7 7 7 8 10 12 11 11 12 11 12 12 11 9 8 10 10 10 10 12 11 11
Wind_Direction
178 179 175 176 175 169 173 179 180 178 174 173 174 173 174 177 175 172 181 182 186 197 197 191 211 202 195 206 182 167 172 165 216 272 267 276 282 282 285 273 268 265 268
181 179 181 180 179 179 181 183 180 177 178 177 175 176 182 185 183 182 191 189 191 201 209 204 220 215 212 217 210 219 218 199 199 254 279 282 273 272 270 274 272 268 264
181 181 182 184 186 188 187 184 179 177 178 180 178 183 188 188 190 194 194 197 201 207 208 207 216 207 219 222 219 224 231 224 202 221 258 265 273 278 288 287 279 278 278
184 184 186 190 194 194 189 185 184 181 181 186 189 192 193 193 195 199 199 203 209 214 215 215 217 210 215 218 222 224 226 231 229 231 251 263 267 276 271 276 290 283 281
184 189 195 193 194 194 191 189 188 189 193 194 194 199 198 197 203 202 203 207 211 219 225 224 224 221 219 217 220 220 218 225 231 237 250 260 264 266 259 252 260 276 279
186 194 193 188 194 196 196 192 191 193 194 192 194 197 201 209 209 207 207 213 213 219 229 235 239 237 235 232 233 227 215 218 225 230 240 243 254 248 247 244 247 264 280
191 194 191 191 194 198 198 192 193 196 195 196 198 197 204 211 208 208 212 209 217 223 226 232 245 246 240 241 247 247 239 234 227 226 236 244 248 242 236 245 239 236 246
190 194 195 193 196 195 196 199 204 199 196 199 202 201 202 212 208 209 211 209 218 226 225 225 233 249 250 241 247 254 253 252 244 238 239 247 246 243 232 236 243 251 256
182 187 187 184 187 188 198 206 207 201 201 203 199 196 202 217 213 212 205 206 223 237 241 239 235 244 253 250 245 255 266 269 263 249 244 248 251 251 244 242 245 245 263
157 160 159 166 178 191 202 205 205 206 208 203 198 195 201 215 216 212 202 201 224 245 255 253 249 254 264 263 242 246 261 268 273 279 268 264 260 258 250 234 235 242 251
114 113 119 146 178 188 188 186 183 187 188 191 195 199 198 207 208 204 200 200 217 236 248 254 256 262 270 269 253 243 251 260 269 266 268 268 264 259 252 238 230 232 240
90 90 92 92 118 148 147 171 172 166 163 173 172 179 210 213 195 200 206 213 216 225 245 252 257 267 273 273 265 257 262 267 263 263 265 266 265 264 259 249 239 236 238
83 78 77 79 82 104 125 126 111 120 137 147 148 170 209 215 196 197 210 223 226 229 245 250 259 267 276 274 268 271 274 264 257 261 264 265 263 262 261 260 257 250 247
80 70 67 83 84 83 99 115 127 140 148 161 168 184 206 243 245 228 243 250 249 252 266 275 280 281 278 272 277 279 265 255 255 260 267 269 270 267 263 259 263 261 261
74 70 66 66 84 88 99 137 160 193 185 180 192 192 195 232 242 217 209 228 228 242 266 288 293 299 299 295 291 285 280 278 271 266 269 274 274 270 267 260 256 256 255
64 52 57 58 64 82 89 33 341 258 224 207 201 192 208 221 228 229 236 248 252 231 201 259 274 278 278 282 284 286 281 276 273 271 270 268 269 268 268 265 256 254 258
70 51 42 42 54 74 95 135 337 342 326 263 235 228 229 237 243 249 257 265 261 208 218 254 261 265 267 271 273 276 279 279 278 276 274 272 270 269 267 266 263 259 262
46 35 31 10 349 291 249 225 201 218 277 297 273 243 235 239 245 250 247 246 281 239 236 250 258 260 264 269 273 276 279 283 280 276 274 273 271 269 270 268 263 259 265
27 4 357 345 334 319 314 299 250 239 237 255 274 279 253 249 256 258 212 211 248 259 253 251 254 260 265 268 270 272 273 276 276 277 278 276 273 270 269 268 267 266 265
6 355 1 347 337 332 326 315 302 289 265 250 253 259 266 192 274 277 240 237 248 258 260 258 260 264 268 272 274 275 277 276 277 277 278 278 275 269 269 271 272 271 267
345 343 353 355 337 317 305 291 278 269 260 259 261 257 220 210 240 256 263 260 258 261 262 261 265 272 272 275 276 274 275 276 275 277 279 280 278 274 270 268 268 269 269
340 334 335 326 319 319 307 296 294 287 278 273 278 288 259 250 262 264 267 271 269 266 265 266 271 271 272 275 277 278 277 279 279 280 280 280 281 280 276 274 272 270 268
345 340 337 331 328 333 337 334 327 318 309 302 296 299 302 281 278 276 278 280 278 278 276 274 276 278 276 274 275 274 276 280 281 280 282 283 282 281 278 275 274 274 271
351 347 348 346 350 354 349 342 338 333 329 325 315 304 296 291 291 290 288 285 285 284 282 280 278 280 284 284 281 279 278 284 290 287 284 282 281 279 278 276 274 272 270
352 350 351 350 352 353 351 347 344 340 333 327 322 317 312 304 297 295 294 292 292 291 292 293 290 290 290 290 289 290 290 291 287 286 283 278 276 276 275 275 274 274 272
350 353 358 1 0 356 354 348 343 340 331 324 322 320 317 316 313 311 308 306 304 300 300 302 300 300 300 299 297 301 299 295 291 284 278 274 274 274 275 275 278 276 277
Height
1506 1510 1513 1517 1520 1523 1525 1528 1530 1532 1534 1536 1538 1540 1541 1543 1544 1545 1546 1548 1549 1549 1550 1551 1551 1552 1552 1552 1553 1553 1553 1552 1552 1551 1551 1550 1550 1549 1548 1547 1546 1545 1544
1504 1508 1511 1514 1517 1520 1523 1525 1528 1530 1531 1533 1535 1537 1539 1540 1542 1543 1544 1545 1546 1547 1548 1548 1549 1549 1550 1550 1550 1550 1550 1550 1549 1548 1548 1547 1546 1545 1544 1543 1542 1541 1540
1502 1505 1509 1512 1514 1517 1519 1522 1524 1526 1528 1530 1532 1534 1535 1537 1539 1540 1541 1542 1543 1544 1545 1546 1546 1547 1547 1547 1547 1547 1547 1547 1546 1545 1544 1543 1542 1542 1540 1539 1538 1537 1536
1500 1503 1506 1508 1511 1514 1516 1518 1521 1523 1525 1527 1528 1530 1532 1534 1535 1536 1538 1539 1540 1541 1542 1542 1543 1543 1543 1543 1544 1543 1543 1543 1542 1541 1540 1539 1538 1537 1536 1534 1533 1532 1531
1497 1499 1501 1505 1508 1510 1513 1515 1518 1520 1521 1523 1525 1526 1528 1530 1531 1533 1534 1535 1536 1537 1538 1538 1539 1539 1539 1540 1539 1539 1539 1538 1538 1536 1535 1534 1533 1532 1531 1530 1528 1526 1525
1493 1495 1498 1502 1504 1507 1509 1512 1514 1516 1517 1519 1520 1522 1523 1525 1527 1529 1531 1532 1532 1533 1534 1534 1535 1535 1535 1535 1535 1535 1534 1534 1532 1532 1530 1529 1527 1527 1526 1524 1523 1521 1518
1489 1492 1495 1498 1500 1503 1506 1508 1509 1511 1513 1514 1516 1517 1519 1520 1522 1524 1526 1527 1528 1529 1529 1530 1530 1530 1530 1530 1529 1529 1528 1528 1528 1527 1524 1523 1522 1521 1520 1518 1517 1515 1513
1486 1489 1492 1495 1497 1500 1502 1504 1506 1507 1509 1510 1511 1513 1514 1516 1518 1519 1520 1521 1522 1523 1524 1524 1524 1524 1524 1524 1523 1522 1522 1521 1521 1520 1518 1517 1516 1515 1514 1512 1510 1508 1505
1483 1485 1488 1491 1494 1496 1497 1499 1501 1502 1504 1505 1507 1508 1510 1511 1513 1513 1515 1515 1516 1517 1518 1518 1519 1518 1518 1518 1517 1515 1514 1514 1514 1512 1511 1509 1508 1508 1507 1504 1502 1500 1496
1479 1482 1484 1487 1489 1490 1492 1494 1496 1498 1499 1501 1502 1503 1505 1506 1507 1508 1509 1510 1510 1511 1512 1512 1512 1512 1512 1511 1510 1508 1507 1506 1505 1504 1502 1501 1500 1499 1498 1496 1494 1492 1489
1478 1480 1481 1483 1484 1486 1488 1490 1492 1494 1495 1496 1497 1499 1500 1501 1502 1503 1503 1504 1504 1505 1505 1505 1506 1505 1505 1504 1503 1501 1500 1498 1496 1495 1493 1492 1490 1489 1488 1487 1486 1484 1481
1477 1478 1479 1480 1481 1483 1484 1486 1487 1489 1490 1491 1493 1494 1495 1496 1497 1497 1498 1498 1499 1499 1499 1499 1499 1498 1498 1497 1495 1494 1493 1491 1488 1486 1484 1482 1481 1479 1478 1477 1476 1475 1473
1476 1477 1478 1479 1479 1480 1481 1482 1483 1485 1485 1487 1488 1489 1490 1491 1491 1492 1493 1493 1493 1493 1493 1493 1492 1492 1491 1489 1488 1486 1485 1483 1480 1478 1475 1474 1472 1471 1469 1468 1466 1465 1463
1477 1478 1479 1479 1479 1479 1479 1480 1481 1482 1483 1484 1485 1486 1486 1487 1487 1487 1487 1488 1488 1488 1488 1487 1487 1486 1484 1483 1481 1479 1477 1475 1473 1470 1468 1466 1464 1462 1460 1459 1457 1455 1453
1478 1479 1479 1479 1479 1479 1479 1480 1480 1481 1481 1482 1483 1483 1483 1484 1483 1483 1484 1484 1483 1483 1482 1481 1480 1479 1477 1475 1473 1472 1470 1468 1466 1463 1461 1458 1456 1454 1452 1450 1449 1447 1445
1480 1480 1480 1480 1479 1479 1479 1480 1480 1480 1480 1480 1480 1480 1480 1480 1480 1480 1480 1479 1479 1478 1477 1475 1473 1472 1470 1468 1467 1465 1463 1461 1458 1456 1453 1450 1448 1445 1443 1442 1440 1438 1436
1481 1481 1481 1481 1480 1479 1479 1479 1478 1479 1478 1478 1478 1478 1478 1477 1476 1476 1475 1475 1474 1473 1471 1469 1468 1466 1464 1462 1460 1458 1455 1453 1451 1449 1446 1443 1440 1438 1435 1433 1431 1429 1427
1482 1482 1481 1481 1480 1479 1479 1478 1478 1477 1476 1476 1475 1475 1474 1474 1473 1472 1471 1470 1469 1468 1466 1464 1462 1460 1458 1456 1453 1451 1448 1446 1444 1441 1438 1435 1433 1430 1427 1424 1422 1420 1418
1482 1482 1481 1481 1480 1479 1478 1477 1476 1475 1474 1473 1472 1472 1471 1470 1469 1468 1466 1465 1463 1462 1460 1458 1456 1454 1451 1449 1446 1444 1441 1438 1436 1433 1430 1427 1424 1422 1419 1416 1414 1412 1410
1482 1481 1480 1479 1478 1477 1476 1475 1474 1472 1471 1470 1469 1468 1467 1465 1464 1462 1461 1459 1457 1455 1453 1451 1449 1447 1444 1442 1439 1436 1433 1431 1428 1425 1422 1419 1416 1414 1411 1408 1406 1403 1401
1482 1480 1479 1478 1477 1475 1474 1473 1471 1470 1468 1466 1465 1464 1462 1460 1458 1457 1455 1453 1451 1449 1446 1444 1442 1439 1437 1434 1431 1429 1426 1423 1420 1417 1414 1411 1408 1405 1403 1400 1398 1395 1393
1480 1479 1478 1476 1475 1473 1471 1470 1468 1466 1464 1463 1461 1459 1457 1455 1453 1451 1449 1447 1445 1443 1440 1437 1435 1432 1430 1427 1424 1421 1418 1415 1412 1409 1406 1403 1401 1398 1395 1392 1389 1387 1385
1478 1477 1475 1473 1472 1470 1468 1466 1464 1462 1460 1458 1456 1454 1452 1450 1448 1446 1443 1441 1438 1436 1433 1431 1428 1425 1422 1419 1416 1413 1410 1407 1404 1401 1398 1396 1393 1390 1387 1384 1381 1379 1377
1476 1474 1472 1470 1468 1466 1464 1462 1460 1458 1456 1454 1452 1450 1447 1445 1443 1440 1437 1435 1432 1429 1427 1424 1420 1417 1414 1411 1408 1405 1402 1399 1396 1393 1391 1388 1384 1381 1378 1375 1373 1371 1369
1473 1471 1469 1467 1465 1463 1461 1458 1456 1454 1452 1450 1447 1445 1442 1440 1437 1434 1431 1428 1425 1422 1419 1416 1413 1410 1406 1403 1400 1397 1394 1391 1388 1385 1382 1379 1376 1373 1370 1368 1366 1364 1362
1470 1468 1465 1463 1461 1459 1457 1455 1452 1450 1448 1445 1443 1440 1437 1435 1432 1429 1425 1422 1419 1416 1412 1409 1405 1402 1399 1395 1392 1389 1386 1383 1380 1377 1374 1371 1368 1366 1363 1361 1359 1357 1355